Location: Mahannah Oil Field
(37.4664°N, 96.6003°W)
Time: 02:09:37
(UTC+00:00)

A-11 Canister half - Pass Details

Date: 02 February 2021
Orbit: 1524 x 1684 km, 47.3° (Epoch: 25 February)

Event Time Altitude Azimuth Distance (km) Brightness Sun altitude
Rises 17:01:09 0° 212° (SSW) 4,683 11.9 31.1°
Reaches altitude 10° 17:04:20 10° 207° (SSW) 3,691 11.6 31.4°
Maximum altitude 17:13:07 49° 135° (SE) 1,889 11.1 32.2°
Drops below altitude 10° 17:21:55 10° 64° (ENE) 3,708 11.1 32.9°
Sets 17:25:06 0° 60° (ENE) 4,706 11.5 33.1°
